Flag for Belgium Weather past 2 weeks in Eupen, Belgium

Now
47 °F

Light rain. Low clouds.


Feels Like: 41 °F
Forecast: 40 / 46 °F
Wind: 12 mph from Southwest

Location: Spa / La Sauveniere

Current Time: Mar 29, 2015 at 4:05:55 PM

Latest Report: Mar 29, 2015 at 3:00 PM


Visibility: 4 mi

Pressure: 29.55 "Hg

Humidity: 93%

Dew point: 45 °F

Location of EupenLocation

Historic Weather in Eupen — Graph

°F

Eupen temperature yesterday

Maximum temperature yesterday: 49 °F (at 11:00 PM)
Minimum temperature yesterday: 37 °F (at 1:00 AM)
Average temperature yesterday: 42 °F

Past Weeks' High & Low Weather Summary

 TemperatureHumidityPressure
High62 °F (Mar 17, 2:00 PM)100% (Mar 19, 11:00 AM)30.40 "Hg (Mar 19, 11:00 AM)
Low30 °F (Mar 23, 2:00 AM)25% (Mar 17, 2:00 PM)29.61 "Hg (Mar 29, 2:00 PM)
Average40 °F83%30.11 "Hg
* Reported Mar 14 1:00 PM — Mar 29 2:00 PM, Eupen, Weather by CustomWeather, © 2015

Note: Actual official high and low records may vary slightly from our data, if they occured in-between our weather recording intervals... More about our weather records

Advertising

Eupen weather history for previous 24 hours

 ConditionsComfort  
Time TempWeatherWind HumidityBarometerVisibility
2:00 PM
Sun, Mar 29
46 °FScattered clouds.9 mph93%29.61 "Hg6 mi
1:00 PM46 °FScattered clouds.9 mph93%29.66 "Hg5 mi
12:00 PM45 °FPassing clouds.8 mph93%29.69 "Hg7 mi
11:00 AM44 °FLight rain. Partly sunny.8 mph93%29.72 "Hg4 mi
10:00 AM44 °FDrizzle. Low clouds.9 mph93%29.74 "Hg4 mi
9:00 AM44 °FLow clouds.9 mph93%29.77 "Hg12 mi
8:00 AM44 °FDrizzle. Overcast.7 mph89%29.79 "Hg6 mi
7:00 AM45 °FOvercast.7 mph84%29.80 "Hg9 mi
6:00 AM46 °FOvercast.8 mph87%29.80 "Hg11 mi
5:00 AM46 °FOvercast.8 mph88%29.81 "Hg16 mi
4:00 AM47 °FOvercast.8 mph87%29.81 "Hg22 mi
3:00 AM48 °FLow clouds.6 mph90%29.83 "Hg19 mi
1:00 AM48 °FLow clouds.7 mph92%29.85 "Hg19 mi
12:00 AM49 °FLow clouds.8 mph94%29.86 "HgN/A
11:00 PM
Sat, Mar 28
49 °FLight rain. Low clouds.9 mph93%29.87 "Hg2 mi
9:00 PM47 °FLow clouds.7 mph94%29.90 "HgN/A
8:00 PM47 °FPassing clouds.6 mph93%29.95 "Hg4 mi
7:00 PM47 °FLow clouds.7 mph91%29.96 "Hg16 mi
6:00 PM45 °FLow clouds.6 mph95%29.96 "Hg12 mi
5:00 PM45 °FLow clouds.6 mph95%29.98 "HgN/A
4:00 PM44 °FDrizzle. Low clouds.6 mph96%30.01 "Hg2 mi
Weather by CustomWeather, © 2015

See weather overviewHow to use our weather pages